This is the latest recevied weather packets stored in our database for station/object DC1MAK-13. If no packets are shown the sender has not sent any weather packets the latest 10 day(s).
| Time | Temp. | Humidity | Pressure | Rain* | Wind** | Luminosity | Snow |
|---|---|---|---|---|---|---|---|
| 1778076519 | 18.89° C | 50% | 976.2 hPa | - | - | - | - |
| 1778076211 | 17.78° C | 51% | 976.2 hPa | - | - | - | - |
| 1778075908 | 17.78° C | 51% | 976.2 hPa | - | - | - | - |
| 1778074390 | 18.33° C | 49% | 976.4 hPa | - | - | - | - |
| 1778074086 | 18.89° C | 51% | 976.4 hPa | - | - | - | - |
| 1778072872 | 18.89° C | 48% | 976.3 hPa | - | - | - | - |
| 1778072265 | 18.89° C | 48% | 976.4 hPa | - | - | - | - |
| 1778071050 | 20° C | 45% | 976.4 hPa | - | - | - | - |
| 1778070443 | 18.89° C | 48% | 976.4 hPa | - | - | - | - |
| 1778069532 | 18.89° C | 50% | 976.4 hPa | - | - | - | - |
| 1778068925 | 17.78° C | 52% | 976.4 hPa | - | - | - | - |
| 1778068319 | 17.22° C | 56% | 976.5 hPa | - | - | - | - |
| 1778063764 | 16.67° C | 65% | 976.9 hPa | - | - | - | - |
| 1778063159 | 17.22° C | 64% | 977 hPa | - | - | - | - |
| 1778062859 | 17.22° C | 60% | 977.1 hPa | - | - | - | - |
| 1778062549 | 17.22° C | 60% | 977.1 hPa | - | - | - | - |
| 1778061942 | 17.78° C | 61% | 977.1 hPa | - | - | - | - |
| 1778061339 | 17.78° C | 59% | 977.2 hPa | - | - | - | - |
| 1778060728 | 18.33° C | 55% | 977.2 hPa | - | - | - | - |
| 1778059819 | 18.89° C | 60% | 977.1 hPa | - | - | - | - |
| 1778059519 | 17.78° C | 63% | 977.1 hPa | - | - | - | - |
| 1778059210 | 17.78° C | 65% | 977.2 hPa | - | - | - | - |
| 1778057999 | 16.67° C | 68% | 977.1 hPa | - | - | - | - |
| 1778057692 | 16.67° C | 70% | 977 hPa | - | - | - | - |
| 1778056479 | 16.11° C | 71% | 977.1 hPa | - | - | - | - |
* Rain since midnight (hover to see other rain measurements)
** Current wind speed in m/s (hover to see current wind gust speed)